Anchorage Merrill, AK

2:28 PM AKDT on March 28, 2017 (GMT -0800)
Merrill

Weather History for PAMR - October, 2012

Change the Weather History Date:

Saturday, October 13, 2012

  Actual Average Record
Temperature  
Mean Temperature 32 °F -  
Max Temperature 37 °F 40 °F 54 °F (2004)
Min Temperature 28 °F 27 °F 17 °F (1997)
Degree Days  
Heating Degree Days 33    
Moisture  
Dew Point 24 °F    
Average Humidity 72    
Maximum Humidity 93    
Minimum Humidity 46    
Precipitation  
Precipitation 0.04 in - - ()
Sea Level Pressure  
Sea Level Pressure 29.16 in    
Wind  
Wind Speed 5 mph (NNE)    
Max Wind Speed 12 mph    
Max Gust Speed -    
Visibility 8 miles    
Events Snow    
Averages and records for this station are not official NWS values.
T = Trace of Precipitation, MM = Missing Value Source: NWS Daily Summary

Daily Weather History Graph

Daily Weather History Graph

Search for Another Location

Airport or City:

Trip Planner

Search our weather history database for the weather conditions in past years. The results will help you decide how hot, cold, wet, or windy it might be!

Date:

Astronomy

Oct. 13, 2012 Rise Set
Actual Time 8:38 AM AKDT 6:51 PM AKDT
Civil Twilight 7:54 AM AKDT 7:35 PM AKDT
Nautical Twilight 7:04 AM AKDT 8:24 PM AKDT
Astronomical Twilight 6:13 AM AKDT 9:15 PM AKDT
Moon 6:18 AM AKDT (10/13) 5:53 PM AKDT (10/13)
Length of Visible Light 11h 40m
Length of Day
10h 13m
Waning Crescent, 4% of the Moon is Illuminated
Oct 13
Waning Crescent
Oct 15
New
Oct 21
First Quarter
Oct 29
Full
Nov 6
Last Quarter

Hourly Weather History & Observations

Time (AKDT) Temp. Windchill Dew Point Humidity Pressure Visibility Wind Dir Wind Speed Gust Speed Precip Events Conditions
12:53 AM 28.9 °F 25.2 °F 25.0 °F 85% 29.11 in 10.0 mi East 3.5 mph - N/A   Clear
1:53 AM 28.9 °F - 24.1 °F 82% 29.11 in 10.0 mi Calm Calm - N/A   Clear
2:53 AM 28.0 °F - 23.0 °F 81% 29.10 in 10.0 mi Calm Calm - N/A   Clear
3:53 AM 30.0 °F 25.2 °F 21.9 °F 72% 29.10 in 10.0 mi NNE 4.6 mph - N/A   Clear
4:53 AM 32.0 °F 27.5 °F 19.9 °F 61% 29.09 in 10.0 mi NE 4.6 mph - N/A   Clear
5:53 AM 33.1 °F 28.7 °F 17.1 °F 52% 29.09 in 10.0 mi NNE 4.6 mph - N/A   Clear
6:53 AM 33.1 °F 26.9 °F 19.0 °F 56% 29.10 in 10.0 mi NNW 6.9 mph - N/A   Clear
7:53 AM 33.1 °F 26.1 °F 17.1 °F 52% 29.11 in 10.0 mi North 8.1 mph - N/A   Overcast
8:53 AM 33.1 °F 24.4 °F 16.0 °F 50% 29.11 in 10.0 mi North 11.5 mph - N/A   Overcast
9:53 AM 33.1 °F 25.5 °F 16.0 °F 50% 29.13 in 10.0 mi North 9.2 mph - N/A   Overcast
10:53 AM 33.1 °F 25.5 °F 15.1 °F 48% 29.13 in 10.0 mi North 9.2 mph - N/A   Overcast
11:53 AM 34.0 °F 26.0 °F 15.1 °F 46% 29.14 in 10.0 mi North 10.4 mph - N/A   Overcast
12:53 PM 35.1 °F 30.1 °F 18.0 °F 50% 29.15 in 10.0 mi North 5.8 mph - N/A   Overcast
1:53 PM 36.0 °F 30.3 °F 19.9 °F 52% 29.17 in 10.0 mi NNE 6.9 mph - N/A   Overcast
2:53 PM 35.1 °F 31.0 °F 24.1 °F 64% 29.19 in 10.0 mi NE 4.6 mph - N/A   Overcast
3:26 PM 35.6 °F 30.7 °F 24.8 °F 65% 29.19 in 3.0 mi ENE 5.8 mph - 0.00 in Snow Light Snow
3:45 PM 33.8 °F 28.6 °F 26.6 °F 75% 29.19 in 1.0 mi ENE 5.8 mph - 0.00 in Snow Light Snow
3:53 PM 33.1 °F 26.9 °F 27.0 °F 78% 29.20 in 1.0 mi ENE 6.9 mph - 0.00 in Snow Light Snow
4:47 PM 32.0 °F 28.7 °F 30.2 °F 93% 29.20 in 0.8 mi North 3.5 mph - 0.01 in Snow Light Snow
4:53 PM 32.0 °F 28.7 °F 30.0 °F 92% 29.21 in 0.8 mi North 3.5 mph - 0.02 in Snow Light Snow
5:49 PM 32.0 °F 25.6 °F 30.2 °F 93% 29.21 in 1.5 mi North 6.9 mph - 0.02 in Snow Light Snow
5:53 PM 32.0 °F 25.6 °F 30.0 °F 92% 29.21 in 2.0 mi North 6.9 mph - 0.02 in Snow Light Snow
6:53 PM 32.0 °F 26.4 °F 30.0 °F 92% 29.22 in 7.0 mi North 5.8 mph - 0.00 in   Overcast
7:53 PM 33.1 °F 27.7 °F 30.0 °F 89% 29.22 in 10.0 mi North 5.8 mph - N/A   Overcast
9:53 PM 33.1 °F 26.1 °F 30.0 °F 89% 29.22 in 10.0 mi North 8.1 mph - N/A   Overcast
10:53 PM 33.1 °F 26.9 °F 30.0 °F 89% 29.22 in 10.0 mi North 6.9 mph - N/A   Overcast
11:53 PM 33.1 °F 27.7 °F 30.0 °F 89% 29.21 in 10.0 mi NNE 5.8 mph - N/A   Overcast